Orbital Elements at Epoch 2459000.5 (2020-May-31.0) TDB
Reference: JPL 15 (heliocentric ecliptic J2000)
Element | Value | Uncertainty (1-sigma) | Units |
e | .07281430267851013 | 6.7624e-08 | |
a | 2.365419052664504 | 1.6042e-08 | au |
q | 2.193182713802277 | 1.6732e-07 | au |
i | 5.959473190266107 | 6.3495e-06 | deg |
node | 223.8630287266017 | 5.1428e-05 | deg |
peri | 202.6269815546593 | 7.2755e-05 | deg |
M | 260.5101561850689 | 5.5746e-05 | deg |
tp | 2459367.728865584430 (2021-Jun-02.22886558) | 0.00020764 | TDB |
period | 1328.802886215348 3.64 | 1.3518e-05 3.701e-08 | d yr |
n | .2709205433962745 | 2.7561e-09 | deg/d |
Q | 2.537655391526732 | 1.721e-08 | au |
|
| | Orbit Determination Parameters
Additional Information
|